• In India
  • List of Countries
  • For 7 days
  • Water Temperature
  • Satellite Maps
  • Weather Map
  • Weather Widgets
  • user-avatar
    Login

    Hourly Weather Ischgl

    Today, 25 November, Saturday

    Time Temperature Precipitation Wind Pressure Humidity
    00:00 -7°C° 0 mm 3 mps 571 mmHg 89%
    01:00 -7°C° 0 mm 4 mps 571 mmHg 88%
    02:00 -7°C° 0 mm 4 mps 570 mmHg 89%
    03:00 -6°C° 0 mm 3 mps 570 mmHg 90%
    04:00 -7°C° 0 mm 3 mps 569 mmHg 90%
    05:00 -6°C° 0 mm 3 mps 569 mmHg 89%
    06:00 -6°C° 0 mm 3 mps 568 mmHg 89%
    07:00 -7°C° 0 mm 4 mps 568 mmHg 88%
    08:00 -5°C° 0.1 mm 3 mps 568 mmHg 88%
    09:00 -4°C° 0.1 mm 3 mps 568 mmHg 88%
    10:00 -4°C° 0.1 mm 3 mps 569 mmHg 87%
    11:00 -4°C° 1 mm 3 mps 569 mmHg 90%
    12:00 -4°C° 1 mm 3 mps 569 mmHg 92%
    13:00 -3°C° 1 mm 2 mps 569 mmHg 95%
    14:00 -4°C° 1.5 mm 2 mps 569 mmHg 95%
    15:00 -4°C° 1.5 mm 2 mps 568 mmHg 96%
    16:00 -5°C° 1.5 mm 2 mps 568 mmHg 96%
    17:00 -5°C° 0.8 mm 2 mps 568 mmHg 96%
    18:00 -6°C° 0.8 mm 2 mps 568 mmHg 96%
    19:00 -8°C° 0.8 mm 3 mps 568 mmHg 96%
    20:00 -8°C° 0.6 mm 3 mps 568 mmHg 96%
    21:00 -9°C° 0.6 mm 3 mps 568 mmHg 96%
    22:00 -9°C° 0.6 mm 3 mps 568 mmHg 95%
    23:00 -10°C° 0.5 mm 3 mps 568 mmHg 96%

    Tomorrow, 26 November, Sunday

    Time Temperature Precipitation Wind Pressure Humidity
    00:00 -10°C° 0.5 mm 3 mps 568 mmHg 96%
    01:00 -12°C° 0.5 mm 4 mps 568 mmHg 96%
    02:00 -12°C° 0.4 mm 4 mps 568 mmHg 96%
    03:00 -12°C° 0.4 mm 4 mps 568 mmHg 95%
    04:00 -14°C° 0.4 mm 4 mps 568 mmHg 95%
    05:00 -14°C° 0.3 mm 4 mps 569 mmHg 95%
    06:00 -14°C° 0.3 mm 3 mps 569 mmHg 95%
    07:00 -14°C° 0.3 mm 3 mps 569 mmHg 94%
    08:00 -14°C° 0.1 mm 3 mps 570 mmHg 92%
    09:00 -15°C° 0.1 mm 4 mps 570 mmHg 90%
    10:00 -15°C° 0.1 mm 4 mps 571 mmHg 88%
    11:00 -13°C° 0.1 mm 3 mps 571 mmHg 86%
    12:00 -13°C° 0.1 mm 3 mps 571 mmHg 83%
    13:00 -13°C° 0.1 mm 3 mps 571 mmHg 81%
    14:00 -14°C° 0 mm 3 mps 571 mmHg 84%
    15:00 -15°C° 0 mm 3 mps 571 mmHg 87%
    16:00 -15°C° 0 mm 3 mps 571 mmHg 90%
    17:00 -15°C° 0 mm 2 mps 571 mmHg 91%
    18:00 -17°C° 0 mm 2 mps 570 mmHg 92%
    19:00 -18°C° 0 mm 2 mps 570 mmHg 94%
    20:00 -18°C° 0 mm 2 mps 570 mmHg 94%
    21:00 -18°C° 0 mm 2 mps 570 mmHg 93%
    22:00 -18°C° 0 mm 2 mps 571 mmHg 93%
    23:00 -19°C° 0 mm 2 mps 570 mmHg 93%

    Day after tomorrow, 27 November, Monday

    Time Temperature Precipitation Wind Pressure Humidity
    00:00 -19°C° 0 mm 2 mps 570 mmHg 92%
    01:00 -19°C° 0 mm 2 mps 570 mmHg 92%
    02:00 -19°C° 0 mm 2 mps 570 mmHg 92%
    03:00 -19°C° 0 mm 2 mps 570 mmHg 92%
    04:00 -19°C° 0 mm 2 mps 570 mmHg 92%
    05:00 -19°C° 0 mm 2 mps 570 mmHg 92%
    06:00 -19°C° 0 mm 2 mps 571 mmHg 91%
    07:00 -19°C° 0 mm 2 mps 571 mmHg 91%
    08:00 -17°C° 0 mm 2 mps 572 mmHg 89%
    09:00 -16°C° 0 mm 2 mps 572 mmHg 86%
    10:00 -14°C° 0 mm 2 mps 573 mmHg 84%
    11:00 -11°C° 0 mm 1 mps 573 mmHg 80%
    12:00 -10°C° 0 mm 1 mps 574 mmHg 76%
    13:00 -9°C° 0 mm 1 mps 574 mmHg 72%
    14:00 -10°C° 0 mm 1 mps 573 mmHg 76%
    15:00 -11°C° 0 mm 1 mps 572 mmHg 79%
    16:00 -12°C° 0 mm 1 mps 571 mmHg 82%
    17:00 -13°C° 0 mm 1 mps 571 mmHg 76%
    18:00 -13°C° 0 mm 1 mps 570 mmHg 71%
    19:00 -16°C° 0 mm 2 mps 570 mmHg 65%
    20:00 -16°C° 0 mm 2 mps 570 mmHg 62%
    21:00 -16°C° 0 mm 2 mps 570 mmHg 58%
    22:00 -15°C° 0 mm 2 mps 570 mmHg 55%
    23:00 -15°C° 0 mm 2 mps 570 mmHg 55%

    28 November, Tuesday

    Time Temperature Precipitation Wind Pressure Humidity
    00:00 -15°C° 0 mm 2 mps 569 mmHg 55%
    01:00 -14°C° 0 mm 2 mps 569 mmHg 55%
    02:00 -14°C° 0 mm 2 mps 569 mmHg 56%
    03:00 -14°C° 0 mm 2 mps 568 mmHg 57%
    04:00 -14°C° 0 mm 2 mps 568 mmHg 58%
    05:00 -14°C° 0 mm 2 mps 567 mmHg 59%
    06:00 -13°C° 0 mm 2 mps 567 mmHg 59%
    07:00 -13°C° 0 mm 2 mps 567 mmHg 60%
    08:00 -12°C° 0 mm 2 mps 567 mmHg 62%
    09:00 -9°C° 0 mm 2 mps 568 mmHg 64%
    10:00 -8°C° 0 mm 2 mps 568 mmHg 66%
    11:00 -7°C° 0 mm 2 mps 568 mmHg 66%
    12:00 -6°C° 0 mm 2 mps 568 mmHg 66%
    13:00 -3°C° 0 mm 1 mps 568 mmHg 66%
    14:00 -6°C° 0 mm 1 mps 567 mmHg 70%
    15:00 -7°C° 0 mm 1 mps 566 mmHg 75%
    16:00 -9°C° 0 mm 1 mps 565 mmHg 79%
    17:00 -10°C° 0 mm 1 mps 564 mmHg 79%
    18:00 -11°C° 0 mm 1 mps 564 mmHg 79%
    19:00 -11°C° 0 mm 1 mps 564 mmHg 79%
    20:00 -11°C° 0 mm 1 mps 564 mmHg 78%
    21:00 -11°C° 0 mm 1 mps 564 mmHg 77%
    22:00 -11°C° 0 mm 1 mps 564 mmHg 77%
    23:00 -11°C° 0 mm 1 mps 564 mmHg 78%

    29 November, Wednesday

    Time Temperature Precipitation Wind Pressure Humidity
    00:00 -13°C° 0 mm 2 mps 563 mmHg 79%
    01:00 -14°C° 0 mm 2 mps 563 mmHg 80%
    02:00 -14°C° 0 mm 2 mps 563 mmHg 82%
    03:00 -14°C° 0 mm 2 mps 563 mmHg 83%
    04:00 -14°C° 0 mm 2 mps 562 mmHg 84%
    05:00 -14°C° 0.1 mm 2 mps 562 mmHg 85%
    06:00 -14°C° 0.1 mm 2 mps 562 mmHg 86%
    07:00 -14°C° 0.1 mm 2 mps 562 mmHg 86%
    08:00 -13°C° 0.1 mm 2 mps 562 mmHg 86%
    09:00 -12°C° 0.1 mm 2 mps 563 mmHg 85%
    10:00 -10°C° 0.1 mm 2 mps 563 mmHg 85%
    11:00 -9°C° 0.1 mm 2 mps 563 mmHg 84%
    12:00 -9°C° 0.1 mm 2 mps 563 mmHg 84%
    13:00 -8°C° 0.1 mm 2 mps 563 mmHg 83%
    14:00 -8°C° 0.2 mm 1 mps 563 mmHg 86%
    15:00 -8°C° 0.2 mm 1 mps 563 mmHg 89%
    16:00 -9°C° 0.2 mm 1 mps 562 mmHg 92%
    17:00 -9°C° 0.2 mm 1 mps 562 mmHg 93%
    18:00 -10°C° 0.2 mm 1 mps 562 mmHg 94%
    19:00 -11°C° 0.2 mm 1 mps 562 mmHg 95%
    20:00 -11°C° 0.1 mm 1 mps 562 mmHg 95%
    21:00 -12°C° 0.1 mm 1 mps 561 mmHg 95%
    22:00 -13°C° 0.1 mm 1 mps 561 mmHg 94%
    23:00 -13°C° 0 mm 1 mps 560 mmHg 94%

    30 November, Thursday

    Time Temperature Precipitation Wind Pressure Humidity
    00:00 -14°C° 0 mm 1 mps 560 mmHg 94%
    01:00 -15°C° 0 mm 1 mps 559 mmHg 94%
    02:00 -15°C° 0 mm 1 mps 559 mmHg 93%
    03:00 -18°C° 0 mm 2 mps 558 mmHg 93%
    04:00 -18°C° 0 mm 2 mps 558 mmHg 93%
    05:00 -19°C° 0 mm 2 mps 558 mmHg 92%
    06:00 -19°C° 0 mm 2 mps 558 mmHg 91%
    07:00 -20°C° 0 mm 2 mps 557 mmHg 91%
    08:00 -18°C° 0 mm 2 mps 558 mmHg 87%
    09:00 -16°C° 0 mm 2 mps 559 mmHg 83%
    10:00 -13°C° 0 mm 1 mps 560 mmHg 80%
    11:00 -14°C° 0 mm 2 mps 560 mmHg 79%
    12:00 -13°C° 0 mm 2 mps 561 mmHg 78%
    13:00 -12°C° 0 mm 2 mps 561 mmHg 78%
    14:00 -11°C° 0 mm 1 mps 561 mmHg 82%
    15:00 -11°C° 0 mm 1 mps 560 mmHg 85%
    16:00 -12°C° 0 mm 1 mps 560 mmHg 89%
    17:00 -13°C° 0 mm 1 mps 560 mmHg 91%
    18:00 -14°C° 0 mm 1 mps 559 mmHg 92%
    19:00 -15°C° 0 mm 1 mps 559 mmHg 94%
    20:00 -16°C° 0 mm 1 mps 559 mmHg 94%
    21:00 -16°C° 0 mm 1 mps 559 mmHg 93%
    22:00 -16°C° 0 mm 1 mps 559 mmHg 93%
    23:00 -17°C° 0 mm 1 mps 558 mmHg 92%
    Show more